Date_and_time,latitude,longitude,wind_speed,RelWindDirFrom,WindDirFrom,air_pressure,air_temperature,relative_humidity,Temp,platform_speed_wrt_ground,air_pressure_at_mean_sea_level,platform_orientation
2018-11-25 23:50,50.630455,-96.9807716666667,6.1,10.9,327,999.11,-11.9,73,0.93,0.0,1028.54,270.0
2018-11-26 00:00,50.6304566666667,-96.9807733333333,5.7,7.8,318,999.20,-12.0,73,0.93,0.0,1028.64,167.4
2018-11-26 00:00,50.6304566666667,-96.9807733333333,5.4,5.6,325,999.24,-12.0,73,0.93,0.0,1028.69,192.6
2018-11-26 00:10,50.6304583333333,-96.9807733333333,6.3,9.3,315,999.20,-12.1,73,0.94,0.0,1028.66,192.6
2018-11-26 00:20,50.6304566666667,-96.9807716666667,5.8,8.4,317,999.35,-12.1,75,0.94,0.0,1028.81,192.6
2018-11-26 00:30,50.6304583333333,-96.9807733333333,5.6,8.6,313,999.41,-12.2,79,0.94,0.0,1028.89,192.6
2018-11-26 00:40,50.6304583333333,-96.9807733333333,6.9,10.1,306,999.37,-12.2,76,0.94,0.0,1028.85,192.6
2018-11-26 00:50,50.6304566666667,-96.9807666666667,6.6,9.3,309,999.37,-12.3,75,0.94,0.0,1028.87,192.6
2018-11-26 01:00,50.6304516666667,-96.98077,7.0,9.7,304,999.36,-12.7,75,0.94,0.0,1028.88,90.0
2018-11-26 01:10,50.6304566666667,-96.980765,7.1,10.1,316,999.39,-13.0,76,0.94,0.0,1028.94,90.0
2018-11-26 01:20,50.630455,-96.9807616666667,8.2,11.0,313,999.29,-13.2,77,0.94,0.0,1028.85,90.0
2018-11-26 01:30,50.6304266666667,-96.9807466666667,7.5,11.0,314,999.33,-13.3,77,0.94,0.0,1028.89,90.0
2018-11-26 01:40,50.6304533333333,-96.9807516666667,7.0,9.7,309,999.37,-13.5,78,0.94,0.0,1028.96,90.0
2018-11-26 01:50,50.6304583333333,-96.9807633333333,6.5,11.0,310,999.43,-13.7,78,0.94,0.0,1029.03,90.0
2018-11-26 02:00,50.6304616666667,-96.9807633333333,6.2,9.4,308,999.50,-13.7,79,0.94,0.0,1029.10,360.0
2018-11-26 02:10,50.63046,-96.9807666666667,7.0,10.2,312,999.41,-13.7,79,0.94,0.0,1029.01,360.0
2018-11-26 02:20,50.63046,-96.980765,6.5,9.3,311,999.43,-13.7,80,0.94,0.0,1029.04,360.0
2018-11-26 02:30,50.6304616666667,-96.980765,6.6,10.5,315,999.43,-13.8,80,0.95,0.0,1029.05,360.0
2018-11-26 02:40,50.6304616666667,-96.9807633333333,6.9,10.7,311,999.30,-14.2,80,0.95,0.0,1028.94,360.0
2018-11-26 02:50,50.6304633333333,-96.9807616666667,6.8,10.3,303,999.19,-14.4,82,0.96,0.0,1028.86,360.0
2018-11-26 03:00,50.6304633333333,-96.9807616666667,8.0,12.5,309,999.13,-14.4,82,0.96,0.0,1028.82,12.6
2018-11-26 03:10,50.630465,-96.9807616666667,9.5,12.9,311,998.94,-14.4,82,0.96,0.0,1028.63,12.6
2018-11-26 03:20,50.6304633333333,-96.9807616666667,7.5,11.3,319,999.02,-14.2,82,0.96,0.0,1028.71,12.6
2018-11-26 03:30,50.6304633333333,-96.9807616666667,7.6,12.6,318,999.03,-13.9,81,0.96,0.0,1028.72,12.6
2018-11-26 03:40,50.630455,-96.98076,9.2,13.0,315,998.96,-13.8,80,0.95,0.0,1028.64,12.6
2018-11-26 03:50,50.6304566666667,-96.9807666666667,8.7,12.4,312,998.93,-13.8,79,0.95,0.0,1028.61,12.6
2018-11-26 04:00,50.630455,-96.9807266666667,9.3,14.1,315,998.93,-13.8,78,0.95,0.0,1028.61,90.0
2018-11-26 04:10,50.6304583333333,-96.980765,8.9,14.6,313,998.88,-13.8,78,0.95,0.0,1028.57,90.0
2018-11-26 04:20,50.6304683333333,-96.9807833333333,7.5,11.6,313,998.83,-13.9,79,0.95,0.0,1028.53,90.0
2018-11-26 04:30,50.6304666666667,-96.9807633333333,7.7,13.6,313,998.86,-13.8,78,0.94,0.0,1028.57,90.0
2018-11-26 04:40,50.6304633333333,-96.9807633333333,8.1,13.3,318,998.90,-13.8,77,0.94,0.0,1028.63,90.0
2018-11-26 04:50,50.63046,-96.9807583333333,8.0,12.3,318,998.94,-13.8,77,0.94,0.0,1028.67,90.0
2018-11-26 05:00,50.6304616666667,-96.9807583333333,8.1,12.7,318,998.90,-13.9,77,0.94,0.0,1028.63,90.0
2018-11-26 05:10,50.63046,-96.98076,8.9,13.3,322,998.88,-13.9,78,0.93,0.0,1028.61,90.0
2018-11-26 05:20,50.63046,-96.9807616666667,8.9,13.0,321,998.88,-14.0,78,0.93,0.0,1028.59,90.0
2018-11-26 05:30,50.6304583333333,-96.9807616666667,10.3,15.3,325,998.83,-14.0,79,0.93,0.0,1028.53,90.0
2018-11-26 05:40,50.6304583333333,-96.9807633333333,9.4,13.4,320,998.84,-14.2,79,0.93,0.0,1028.56,90.0
2018-11-26 05:50,50.6304583333333,-96.9807633333333,10.1,16.4,319,998.80,-14.4,80,0.93,0.0,1028.52,90.0
2018-11-26 06:00,50.6304583333333,-96.9807616666667,7.8,11.1,311,998.89,-14.6,80,0.93,0.0,1028.63,360.0
2018-11-26 06:10,50.6304566666667,-96.9807616666667,8.7,12.7,309,998.86,-14.7,81,0.93,0.0,1028.61,360.0
2018-11-26 06:20,50.6304516666667,-96.980775,8.0,11.8,299,998.78,-14.8,82,0.93,0.0,1028.53,360.0
2018-11-26 06:30,50.63044,-96.9807633333333,8.5,13.4,307,998.76,-14.8,82,0.92,0.0,1028.50,360.0
2018-11-26 06:40,50.6304466666667,-96.9807716666667,7.6,11.8,310,998.87,-14.8,83,0.91,0.0,1028.62,360.0
2018-11-26 06:50,50.6304466666667,-96.9807716666667,6.9,11.9,311,998.92,-14.7,85,0.90,0.0,1028.68,360.0
2018-11-26 07:00,50.6304516666667,-96.980775,8.7,13.0,315,998.87,-14.6,86,0.90,0.0,1028.62,270.0
2018-11-26 07:10,50.630455,-96.98078,8.4,13.5,319,998.85,-14.5,86,0.90,0.0,1028.59,270.0
2018-11-26 07:20,50.6304566666667,-96.9807783333333,8.9,13.7,319,998.90,-14.5,87,0.91,0.0,1028.65,270.0
2018-11-26 07:30,50.6304566666667,-96.9807766666667,7.6,10.9,316,999.00,-14.5,87,0.91,0.0,1028.76,270.0
2018-11-26 07:40,50.6304566666667,-96.9807766666667,8.4,12.2,317,999.06,-14.6,87,0.91,0.0,1028.84,270.0
2018-11-26 07:50,50.6304583333333,-96.9807766666667,8.4,12.6,319,999.09,-14.5,87,0.91,0.0,1028.87,270.0
2018-11-26 08:00,50.6304583333333,-96.980775,7.9,12.0,319,999.14,-14.4,87,0.91,0.0,1028.93,234.7
2018-11-26 08:10,50.63046,-96.980775,7.4,11.8,318,999.22,-14.3,86,0.91,0.0,1029.02,234.7
2018-11-26 08:20,50.6304383333333,-96.9807816666667,7.4,12.0,322,999.24,-14.3,86,0.91,0.0,1029.03,234.7
2018-11-26 08:30,50.6304733333333,-96.98077,8.7,13.2,326,999.20,-14.2,87,0.91,0.0,1028.98,234.7
2018-11-26 08:40,50.6304616666667,-96.9807916666667,8.8,12.4,321,999.26,-14.2,87,0.91,0.0,1029.04,234.7
2018-11-26 08:50,50.6304616666667,-96.98078,8.4,13.4,320,999.26,-14.2,87,0.91,0.0,1029.03,234.7
2018-11-26 09:00,50.6304583333333,-96.9807766666667,9.2,13.7,326,999.22,-14.1,87,0.91,0.0,1028.98,270.0
2018-11-26 09:10,50.63046,-96.980775,8.2,14.0,327,999.31,-14.0,87,0.91,0.0,1029.06,270.0
2018-11-26 09:20,50.63046,-96.9807716666667,7.8,11.7,326,999.24,-14.0,87,0.91,0.0,1029.00,270.0
2018-11-26 09:30,50.63046,-96.9807716666667,6.2,10.2,323,999.20,-14.0,87,0.91,0.0,1028.96,270.0
2018-11-26 09:40,50.6304616666667,-96.9807733333333,6.8,10.2,315,999.23,-14.0,87,0.90,0.0,1028.98,270.0
2018-11-26 09:50,50.6304616666667,-96.9807733333333,6.8,9.1,322,999.18,-13.9,87,0.91,0.0,1028.92,270.0
2018-11-26 10:00,50.6304666666667,-96.9807833333333,6.3,9.3,321,999.08,-13.9,86,0.91,0.0,1028.82,327.5
2018-11-26 10:10,50.6304666666667,-96.9807683333333,6.5,10.2,320,999.09,-13.8,86,0.91,0.0,1028.81,327.5
2018-11-26 10:20,50.63047,-96.980765,7.2,12.4,319,999.03,-13.8,86,0.91,0.0,1028.75,327.5
2018-11-26 10:30,50.6304683333333,-96.9807633333333,6.4,9.9,317,999.02,-13.8,85,0.91,0.0,1028.74,327.5
2018-11-26 10:40,50.6304666666667,-96.9807633333333,6.1,9.3,310,999.00,-13.8,85,0.91,0.0,1028.72,327.5
2018-11-26 10:50,50.6304633333333,-96.9807516666667,5.7,9.9,291,999.05,-13.9,85,0.91,0.0,1028.77,327.5
2018-11-26 11:00,50.6304716666667,-96.980755,6.5,10.5,302,999.09,-14.0,84,0.90,0.0,1028.82,3.2
2018-11-26 11:10,50.6304683333333,-96.9807633333333,7.4,10.9,304,999.02,-14.1,84,0.90,0.0,1028.74,3.2
2018-11-26 11:20,50.6304666666667,-96.980765,6.6,9.9,307,998.97,-14.1,84,0.90,0.0,1028.69,3.2
2018-11-26 11:30,50.6304633333333,-96.980765,6.6,9.9,310,998.89,-14.1,84,0.90,0.0,1028.61,3.2
2018-11-26 11:40,50.630465,-96.9807666666667,6.1,10.3,310,998.87,-14.1,84,0.90,0.0,1028.58,3.2
2018-11-26 11:50,50.63045,-96.9807633333333,6.3,9.6,307,998.82,-14.0,84,0.90,0.0,1028.53,3.2
2018-11-26 12:00,50.6304583333333,-96.9807733333333,6.4,9.7,303,998.87,-14.1,84,0.90,0.0,1028.58,0.0
2018-11-26 12:10,50.6304633333333,-96.9807766666667,5.6,9.6,302,998.95,-14.1,86,0.90,0.0,1028.65,0.0
2018-11-26 12:20,50.6304566666667,-96.9807666666667,6.4,10.3,311,998.89,-14.0,87,0.90,0.0,1028.59,0.0
2018-11-26 12:30,50.6304633333333,-96.9807683333333,6.2,9.4,305,998.90,-14.0,87,0.90,0.0,1028.61,0.0
2018-11-26 12:40,50.6304633333333,-96.9807583333333,6.4,9.2,302,998.89,-14.0,87,0.90,0.0,1028.60,0.0
2018-11-26 12:50,50.6304616666667,-96.9807916666667,6.5,10.0,306,998.83,-14.0,86,0.90,0.0,1028.54,0.0
2018-11-26 13:00,50.6304583333333,-96.9807766666667,6.5,10.0,306,998.85,-14.0,87,0.90,0.0,1028.56,143.4
2018-11-26 13:10,50.63046,-96.9807733333333,6.0,8.2,310,998.80,-13.9,87,0.90,0.0,1028.52,143.4
2018-11-26 13:20,50.63046,-96.9807716666667,5.7,8.1,311,998.76,-13.7,88,0.90,0.0,1028.47,143.4
2018-11-26 13:30,50.6304583333333,-96.9807816666667,6.2,9.6,317,998.73,-13.7,88,0.90,0.0,1028.43,143.4
2018-11-26 13:40,50.6304516666667,-96.980785,8.1,11.5,315,998.64,-13.7,87,0.90,0.0,1028.34,143.4
2018-11-26 13:50,50.6304583333333,-96.980775,5.5,9.3,310,998.71,-13.7,87,0.90,0.0,1028.41,143.4
2018-11-26 14:00,50.630465,-96.980765,6.6,10.7,306,998.66,-13.7,86,0.90,0.0,1028.36,192.6
2018-11-26 14:10,50.630465,-96.980765,7.5,11.0,306,998.70,-13.7,85,0.89,0.0,1028.39,192.6
2018-11-26 14:20,50.6304666666667,-96.9807616666667,6.3,10.7,300,998.82,-13.7,85,0.89,0.0,1028.52,192.6
2018-11-26 14:30,50.63046,-96.9807633333333,7.3,11.8,300,998.83,-13.7,84,0.89,0.0,1028.52,192.6
2018-11-26 14:40,50.6304616666667,-96.9807716666667,6.9,10.0,302,998.84,-13.7,84,0.89,0.0,1028.54,192.6
2018-11-26 14:50,50.63046,-96.9807716666667,7.0,11.2,299,998.79,-13.8,84,0.89,0.0,1028.49,192.6
2018-11-26 15:00,50.63046,-96.9807716666667,7.6,11.2,306,998.73,-13.8,83,0.90,0.0,1028.42,0.0
2018-11-26 15:10,50.6304616666667,-96.9807716666667,6.7,10.3,295,998.79,-13.7,83,0.90,0.0,1028.48,0.0
2018-11-26 15:20,50.63047,-96.9807633333333,6.9,12.3,300,998.76,-13.6,83,0.90,0.0,1028.44,0.0
2018-11-26 15:30,50.6304683333333,-96.9807666666667,6.2,9.7,299,998.90,-13.5,83,0.90,0.0,1028.57,0.0
2018-11-26 15:40,50.63046,-96.9807816666667,7.7,10.4,293,998.92,-13.4,83,0.90,0.0,1028.58,0.0
2018-11-26 15:50,50.6304633333333,-96.9807766666667,6.0,8.8,290,998.97,-13.2,83,0.90,0.0,1028.62,0.0
2018-11-26 16:00,50.630465,-96.9807783333333,6.8,10.4,302,998.94,-13.1,83,0.90,0.0,1028.59,323.4
2018-11-26 16:10,50.6304633333333,-96.980775,6.9,10.1,302,998.91,-12.9,83,0.90,0.0,1028.55,323.4
2018-11-26 16:20,50.6304616666667,-96.9807733333333,8.3,11.6,304,998.86,-12.8,82,0.90,0.0,1028.49,323.4
2018-11-26 16:30,50.6304583333333,-96.9807716666667,6.7,10.8,306,998.88,-12.7,82,0.90,0.0,1028.51,323.4
2018-11-26 16:40,50.6304566666667,-96.9807733333333,7.3,10.9,301,998.88,-12.5,82,0.90,0.0,1028.50,323.4
2018-11-26 16:50,50.6304616666667,-96.9807683333333,7.6,11.0,302,998.86,-12.4,81,0.90,0.0,1028.47,323.4
2018-11-26 17:00,50.6304633333333,-96.9807683333333,8.2,11.4,304,998.79,-12.3,81,0.90,0.0,1028.39,142.0
2018-11-26 17:10,50.6304633333333,-96.9807783333333,7.9,11.4,309,998.68,-12.3,81,0.90,0.0,1028.26,142.0
2018-11-26 17:20,50.630455,-96.98077,8.4,12.0,304,998.59,-12.1,80,0.90,0.0,1028.16,142.0
2018-11-26 17:30,50.630455,-96.9807716666667,8.0,11.6,295,998.54,-12.0,80,0.90,0.0,1028.10,142.0
2018-11-26 17:40,50.630455,-96.9807733333333,7.8,10.7,302,998.52,-11.8,79,0.90,0.0,1028.06,142.0
2018-11-26 17:50,50.6304533333333,-96.9807733333333,7.9,11.7,299,998.44,-11.7,79,0.90,0.0,1027.96,142.0
2018-11-26 18:00,50.6304533333333,-96.9807733333333,7.8,12.0,295,998.46,-11.6,78,0.91,0.0,1027.97,360.0
2018-11-26 18:10,50.6304533333333,-96.9807716666667,8.1,11.7,294,998.39,-11.5,78,0.91,0.0,1027.88,360.0
2018-11-26 18:20,50.6304533333333,-96.9807716666667,8.0,12.1,290,998.26,-11.3,78,0.91,0.0,1027.73,360.0
2018-11-26 18:30,50.6304533333333,-96.9807716666667,8.2,11.5,289,998.10,-11.3,77,0.91,0.0,1027.55,360.0
2018-11-26 18:40,50.6304483333333,-96.9807716666667,7.9,11.5,288,998.03,-11.1,77,0.91,0.0,1027.46,360.0
2018-11-26 18:50,50.6304583333333,-96.9807733333333,8.4,12.1,289,997.93,-11.1,77,0.91,0.0,1027.35,360.0
2018-11-26 19:00,50.6304583333333,-96.98077,7.8,11.7,295,997.86,-10.9,76,0.91,0.0,1027.27,130.6
2018-11-26 19:10,50.6304566666667,-96.98077,7.3,10.5,305,997.83,-10.8,76,0.91,0.0,1027.23,130.6
2018-11-26 19:20,50.6304583333333,-96.9807683333333,6.5,10.8,301,997.80,-10.6,76,0.91,0.0,1027.18,130.6
2018-11-26 19:30,50.6304683333333,-96.98078,7.8,12.1,307,997.72,-10.5,76,0.91,0.0,1027.08,130.6
2018-11-26 19:40,50.6304616666667,-96.9807616666667,7.9,11.4,308,997.62,-10.4,75,0.91,0.0,1026.96,130.6
2018-11-26 19:50,50.6304616666667,-96.9807616666667,7.3,10.6,300,997.60,-10.3,75,0.91,0.0,1026.93,130.6
2018-11-26 20:00,50.6304516666667,-96.9807516666667,7.7,11.3,300,997.58,-10.2,74,0.91,0.0,1026.89,143.4
2018-11-26 20:10,50.630455,-96.98076,5.9,9.1,294,997.65,-10.1,74,0.91,0.0,1026.95,143.4
2018-11-26 20:20,50.630455,-96.9807566666667,6.8,11.5,302,997.57,-10.0,74,0.91,0.0,1026.86,143.4
2018-11-26 20:30,50.630455,-96.9807566666667,6.7,10.2,299,997.55,-10.1,74,0.91,0.0,1026.84,143.4
2018-11-26 20:40,50.6304533333333,-96.98076,8.8,12.8,288,997.48,-10.2,74,0.92,0.0,1026.77,143.4
2018-11-26 20:50,50.630425,-96.98077,8.0,11.0,294,997.50,-10.2,74,0.92,0.0,1026.78,143.4
2018-11-26 21:00,50.6304566666667,-96.980765,8.1,11.9,295,997.51,-10.2,74,0.92,0.0,1026.78,90.0
2018-11-26 21:10,50.6304533333333,-96.9807616666667,9.0,12.8,287,997.51,-10.2,74,0.92,0.0,1026.78,90.0
2018-11-26 21:20,50.6304533333333,-96.9807616666667,7.4,10.8,292,997.61,-10.2,74,0.92,0.0,1026.87,90.0
2018-11-26 21:30,50.6304533333333,-96.9807616666667,7.7,11.3,299,997.62,-10.2,74,0.92,0.0,1026.88,90.0
2018-11-26 21:40,50.6304533333333,-96.9807633333333,7.4,12.1,303,997.60,-10.3,75,0.92,0.0,1026.86,90.0
2018-11-26 21:50,50.630455,-96.980765,6.2,9.4,292,997.65,-10.3,75,0.92,0.0,1026.90,90.0
2018-11-26 22:00,50.6304533333333,-96.980765,6.7,9.6,298,997.64,-10.4,75,0.92,0.0,1026.89,360.0
2018-11-26 22:10,50.63045,-96.98078,6.7,9.2,294,997.60,-10.5,75,0.92,0.0,1026.84,360.0
2018-11-26 22:20,50.630445,-96.9807633333333,5.8,9.4,295,997.60,-10.5,76,0.92,0.0,1026.85,360.0
2018-11-26 22:30,50.6304466666667,-96.9807516666667,5.7,7.8,294,997.54,-10.5,76,0.92,0.0,1026.80,360.0
2018-11-26 22:40,50.630455,-96.9807633333333,5.8,9.6,291,997.54,-10.6,76,0.92,0.0,1026.81,360.0
2018-11-26 22:50,50.6304483333333,-96.9807666666667,6.6,9.8,288,997.52,-10.7,76,0.92,0.0,1026.79,360.0
2018-11-26 23:00,50.63045,-96.98077,7.1,10.9,293,997.55,-10.7,76,0.92,0.0,1026.82,270.0
2018-11-26 23:10,50.63045,-96.9807683333333,7.0,10.1,292,997.58,-10.8,76,0.92,0.0,1026.86,270.0
2018-11-26 23:20,50.63045,-96.98077,6.8,9.5,289,997.67,-10.8,77,0.92,0.0,1026.95,270.0
2018-11-26 23:30,50.63045,-96.98077,6.2,9.3,290,997.71,-10.9,77,0.92,0.0,1027.00,270.0
